| time (UTC) | temp F | wind direction | speed MPH | gust MPH | rain 1hr in | rain 24hr in | rain mn in | humidity % | barometer mb |
| 20260510204314 | 68 | 333 | 3.0 | 5.0 | 0.01 | 0.01 | 0.01 | 72 | 1012.7 |
| 20260510203313 | 69 | 351 | 3.0 | 6.0 | 0.00 | 0.00 | 0.00 | 67 | 1012.3 |
| 20260510202341 | 69 | 5 | 2.0 | 4.0 | 0.00 | 0.00 | 0.00 | 66 | 1011.9 |
| 20260510201335 | 69 | 293 | 3.0 | 6.0 | 0.00 | 0.00 | 0.00 | 65 | 1011.7 |
| 20260510200336 | 70 | 27 | 2.0 | 6.0 | 0.00 | 0.00 | 0.00 | 65 | 1011.6 |
| 20260510195331 | 70 | 5 | 3.0 | 5.0 | 0.00 | 0.01 | 0.00 | 63 | 1011.6 |
| 20260510194313 | 71 | 30 | 4.0 | 9.0 | 0.00 | 0.01 | 0.00 | 64 | 1011.7 |
| 20260510193331 | 70 | 345 | 3.0 | 8.0 | 0.00 | 0.01 | 0.00 | 65 | 1011.9 |
| 20260510192337 | 70 | 351 | 2.0 | 4.0 | 0.00 | 0.01 | 0.00 | 64 | 1011.8 |
| 20260510191319 | 71 | 5 | 3.0 | 5.0 | 0.00 | 0.01 | 0.00 | 61 | 1011.8 |
| 20260510190325 | 72 | 351 | 2.0 | 6.0 | 0.00 | 0.01 | 0.00 | 59 | 1012.0 |
| 20260510185336 | 73 | 333 | 3.0 | 5.0 | 0.00 | 0.01 | 0.00 | 55 | 1012.1 |
| 20260510184330 | 73 | 321 | 2.0 | 4.0 | 0.00 | 0.01 | 0.00 | 53 | 1012.1 |
| 20260510183339 | 73 | 267 | 0.0 | 2.0 | 0.00 | 0.01 | 0.00 | 55 | 1012.1 |
| 20260510182313 | 73 | 175 | 2.0 | 6.0 | 0.00 | 0.01 | 0.00 | 52 | 1012.1 |
| 20260510181319 | 73 | 205 | 3.0 | 7.0 | 0.00 | 0.01 | 0.00 | 53 | 1011.8 |
| 20260510180319 | 74 | 172 | 2.0 | 7.0 | 0.00 | 0.01 | 0.00 | 54 | 1011.9 |
| 20260510175321 | 74 | 287 | 3.0 | 7.0 | 0.00 | 0.01 | 0.00 | 52 | 1011.9 |
| 20260510174333 | 75 | 207 | 4.0 | 8.0 | 0.00 | 0.01 | 0.00 | 51 | 1011.9 |
| 20260510173338 | 75 | 192 | 2.0 | 6.0 | 0.00 | 0.01 | 0.00 | 54 | 1012.0 |
| 20260510172333 | 74 | 257 | 2.0 | 5.0 | 0.00 | 0.01 | 0.00 | 53 | 1011.9 |
| 20260510171313 | 74 | 182 | 1.0 | 6.0 | 0.00 | 0.01 | 0.00 | 55 | 1012.1 |
| 20260510170316 | 72 | 284 | 2.0 | 5.0 | 0.00 | 0.01 | 0.00 | 56 | 1012.3 |
| 20260510165332 | 71 | 173 | 1.0 | 3.0 | 0.00 | 0.01 | 0.00 | 57 | 1012.3 |
| 20260510164314 | 70 | 297 | 4.0 | 7.0 | 0.00 | 0.01 | 0.00 | 56 | 1012.5 |
| 20260510163318 | 71 | 257 | 1.0 | 8.0 | 0.00 | 0.01 | 0.00 | 58 | 1012.6 |
| 20260510162320 | 71 | 236 | 4.0 | 8.0 | 0.00 | 0.01 | 0.00 | 57 | 1012.6 |
| 20260510161315 | 71 | 281 | 3.0 | 8.0 | 0.00 | 0.01 | 0.00 | 59 | 1012.5 |
| 20260510160359 | 71 | 275 | 3.0 | 10.0 | 0.00 | 0.01 | 0.00 | 60 | 1012.6 |
| 20260510155330 | 71 | 275 | 3.0 | 10.0 | 0.00 | 0.01 | 0.00 | 58 | 1012.6 |
| 20260510154337 | 71 | 225 | 4.0 | 10.0 | 0.00 | 0.01 | 0.00 | 58 | 1012.4 |
| 20260510153337 | 71 | 298 | 5.0 | 10.0 | 0.00 | 0.01 | 0.00 | 57 | 1012.3 |
| 20260510152316 | 72 | 270 | 2.0 | 12.0 | 0.00 | 0.01 | 0.00 | 59 | 1012.4 |
| 20260510151350 | 71 | 242 | 4.0 | 8.0 | 0.00 | 0.01 | 0.00 | 60 | 1012.2 |
| 20260510150336 | 71 | 175 | 2.0 | 6.0 | 0.00 | 0.01 | 0.00 | 62 | 1012.1 |
| 20260510145349 | 71 | 190 | 5.0 | 9.0 | 0.00 | 0.01 | 0.00 | 60 | 1012.0 |
| 20260510144315 | 69 | 286 | 4.0 | 8.0 | 0.00 | 0.01 | 0.00 | 62 | 1012.1 |
| 20260510143315 | 70 | 225 | 4.0 | 7.0 | 0.00 | 0.01 | 0.00 | 61 | 1012.0 |
| 20260510142338 | 71 | 260 | 3.0 | 5.0 | 0.00 | 0.01 | 0.00 | 62 | 1011.9 |
| 20260510141315 | 71 | 228 | 3.0 | 8.0 | 0.00 | 0.01 | 0.00 | 60 | 1011.8 |
| 20260510140315 | 69 | 164 | 3.0 | 8.0 | 0.00 | 0.01 | 0.00 | 66 | 1011.9 |
| 20260510135319 | 68 | 192 | 6.0 | 11.0 | 0.00 | 0.02 | 0.00 | 62 | 1011.8 |
| 20260510134316 | 67 | 244 | 4.0 | 8.0 | 0.00 | 0.02 | 0.00 | 64 | 1011.9 |
| 20260510133315 | 67 | 240 | 3.0 | 8.0 | 0.00 | 0.02 | 0.00 | 66 | 1012.0 |
| 20260510132337 | 67 | 229 | 5.0 | 9.0 | 0.00 | 0.02 | 0.00 | 67 | 1012.0 |
| 20260510131334 | 65 | 200 | 5.0 | 8.0 | 0.00 | 0.02 | 0.00 | 71 | 1011.8 |
| 20260510130337 | 65 | 215 | 5.0 | 9.0 | 0.00 | 0.02 | 0.00 | 71 | 1011.7 |
| 20260510125337 | 64 | 227 | 4.0 | 10.0 | 0.00 | 0.03 | 0.00 | 74 | 1011.7 |
| 20260510124332 | 64 | 213 | 3.0 | 8.0 | 0.00 | 0.03 | 0.00 | 78 | 1011.6 |
| 20260510123355 | 61 | 229 | 4.0 | 9.0 | 0.00 | 0.03 | 0.00 | 90 | 1011.6 |
| 20260510122335 | 58 | 242 | 3.0 | 4.0 | 0.00 | 0.03 | 0.00 | 94 | 1011.3 |
| 20260510121322 | 57 | 279 | 1.0 | 3.0 | 0.00 | 0.03 | 0.00 | 96 | 1011.3 |
| 20260510120313 | 55 | 279 | 1.0 | 3.0 | 0.00 | 0.03 | 0.00 | 96 | 1011.5 |
| 20260510115312 | 54 | 238 | 1.0 | 3.0 | 0.00 | 0.03 | 0.00 | 96 | 1011.6 |
| 20260510114316 | 53 | 249 | 1.0 | 3.0 | 0.00 | 0.03 | 0.00 | 96 | 1011.4 |
| 20260510113337 | 52 | 191 | 1.0 | 3.0 | 0.00 | 0.03 | 0.00 | 96 | 1011.3 |
| 20260510112338 | 51 | 270 | 1.0 | 2.0 | 0.00 | 0.03 | 0.00 | 96 | 1011.2 |
| 20260510111314 | 50 | 156 | 0.0 | 1.0 | 0.00 | 0.03 | 0.00 | 95 | 1011.1 |
| 20260510110314 | 49 | 156 | 0.0 | 1.0 | 0.00 | 0.03 | 0.00 | 95 | 1010.9 |
| 20260510105316 | 49 | 156 | 0.0 | 1.0 | 0.00 | 0.03 | 0.00 | 95 | 1010.8 |
| 20260510104315 | 49 | 156 | 1.0 | 2.0 | 0.00 | 0.03 | 0.00 | 95 | 1010.7 |
| 20260510103336 | 49 | 149 | 0.0 | 2.0 | 0.00 | 0.03 | 0.00 | 95 | 1010.7 |
| 20260510102312 | 49 | 9 | 1.0 | 2.0 | 0.00 | 0.03 | 0.00 | 95 | 1010.6 |
| 20260510101313 | 49 | 9 | 1.0 | 3.0 | 0.00 | 0.03 | 0.00 | 95 | 1010.5 |
| 20260510100313 | 49 | 103 | 0.0 | 3.0 | 0.00 | 0.03 | 0.00 | 95 | 1010.4 |
| 20260510095312 | 49 | 88 | 2.0 | 3.0 | 0.00 | 0.03 | 0.00 | 95 | 1010.6 |
| 20260510094315 | 49 | 81 | 2.0 | 4.0 | 0.00 | 0.03 | 0.00 | 95 | 1010.6 |
| 20260510093331 | 48 | 100 | 1.0 | 5.0 | 0.00 | 0.03 | 0.00 | 95 | 1010.5 |
| 20260510092332 | 48 | 12 | 3.0 | 5.0 | 0.00 | 0.03 | 0.00 | 95 | 1010.5 |
| 20260510091355 | 47 | 12 | 1.0 | 4.0 | 0.00 | 0.03 | 0.00 | 95 | 1010.0 |
| 20260510090335 | 47 | 202 | 0.0 | 0.0 | 0.00 | 0.03 | 0.00 | 94 | 1009.4 |
| 20260510085335 | 47 | 202 | 1.0 | 2.0 | 0.00 | 0.03 | 0.00 | 94 | 1009.2 |
| 20260510084318 | 47 | 202 | 0.0 | 1.0 | 0.00 | 0.03 | 0.00 | 94 | 1009.3 |
| 20260510083335 | 47 | 202 | 0.0 | 1.0 | 0.00 | 0.03 | 0.00 | 94 | 1009.2 |
| 20260510082320 | 47 | 202 | 0.0 | 1.0 | 0.00 | 0.03 | 0.00 | 94 | 1009.2 |
| 20260510081321 | 47 | 202 | 2.0 | 3.0 | 0.00 | 0.03 | 0.00 | 94 | 1009.2 |
| 20260510080322 | 48 | 202 | 0.0 | 0.0 | 0.00 | 0.03 | 0.00 | 94 | 1009.4 |
| 20260510075339 | 48 | 202 | 0.0 | 2.0 | 0.00 | 0.03 | 0.00 | 93 | 1009.5 |
| 20260510074319 | 48 | 167 | 1.0 | 2.0 | 0.00 | 0.03 | 0.00 | 93 | 1009.2 |
| 20260510073316 | 48 | 167 | 1.0 | 2.0 | 0.00 | 0.03 | 0.00 | 93 | 1009.2 |
| 20260510072340 | 48 | 167 | 0.0 | 3.0 | 0.00 | 0.03 | 0.00 | 93 | 1009.5 |
| 20260510071317 | 48 | 71 | 1.0 | 3.0 | 0.00 | 0.03 | 0.00 | 93 | 1009.6 |
| 20260510070319 | 48 | 5 | 1.0 | 3.0 | 0.00 | 0.03 | 0.00 | 92 | 1009.7 |
| 20260510065359 | 49 | 334 | 1.0 | 4.0 | 0.00 | 0.03 | 0.00 | 93 | 1009.7 |
| 20260510064331 | 49 | 332 | 3.0 | 5.0 | 0.00 | 0.03 | 0.00 | 93 | 1009.7 |
| 20260510063332 | 49 | 113 | 2.0 | 3.0 | 0.00 | 0.03 | 0.00 | 93 | 1009.4 |
| 20260510062315 | 49 | 115 | 3.0 | 10.0 | 0.00 | 0.03 | 0.00 | 93 | 1009.6 |
| 20260510061318 | 49 | 119 | 0.0 | 2.0 | 0.00 | 0.03 | 0.00 | 92 | 1009.3 |
| 20260510060343 | 49 | 119 | 0.0 | 1.0 | 0.00 | 0.03 | 0.00 | 92 | 1009.1 |
| 20260510055318 | 50 | 119 | 0.0 | 2.0 | 0.00 | 0.03 | 0.00 | 92 | 1009.1 |
| 20260510054320 | 49 | 119 | 0.0 | 1.0 | 0.00 | 0.03 | 0.00 | 92 | 1009.1 |
| 20260510053317 | 49 | 119 | 0.0 | 2.0 | 0.00 | 0.03 | 0.00 | 91 | 1009.1 |
| 20260510052319 | 49 | 119 | 1.0 | 2.0 | 0.00 | 0.03 | 0.00 | 91 | 1009.0 |
| 20260510051341 | 50 | 119 | 1.0 | 2.0 | 0.00 | 0.03 | 0.00 | 91 | 1008.8 |
| 20260510050319 | 50 | 119 | 0.0 | 1.0 | 0.00 | 0.03 | 0.00 | 91 | 1008.7 |
| 20260510045316 | 50 | 119 | 0.0 | 1.0 | 0.00 | 0.03 | 0.00 | 90 | 1008.7 |
| 20260510044317 | 50 | 119 | 0.0 | 2.0 | 0.00 | 0.03 | 0.00 | 90 | 1008.6 |
| 20260510043317 | 51 | 119 | 1.0 | 3.0 | 0.00 | 0.03 | 0.00 | 90 | 1008.7 |
| 20260510042332 | 51 | 119 | 0.0 | 3.0 | 0.00 | 0.03 | 0.00 | 90 | 1008.8 |
| 20260510041319 | 51 | 119 | 2.0 | 3.0 | 0.00 | 0.03 | 0.00 | 90 | 1008.7 |
| 20260510040349 | 51 | 119 | 0.0 | 2.0 | 0.00 | 0.03 | 0.00 | 89 | 1008.8 |
| 20260510035319 | 51 | 119 | 2.0 | 3.0 | 0.00 | 0.03 | 0.03 | 89 | 1008.7 |
| 20260510034340 | 51 | 119 | 0.0 | 2.0 | 0.00 | 0.03 | 0.03 | 88 | 1008.7 |
| 20260510033316 | 52 | 119 | 0.0 | 2.0 | 0.00 | 0.03 | 0.03 | 88 | 1008.7 |
| 20260510032330 | 52 | 119 | 0.0 | 0.0 | 0.00 | 0.03 | 0.03 | 87 | 1008.8 |
| 20260510031335 | 53 | 119 | 0.0 | 2.0 | 0.00 | 0.03 | 0.03 | 87 | 1008.7 |
| 20260510030319 | 53 | 119 | 0.0 | 1.0 | 0.00 | 0.03 | 0.03 | 86 | 1008.8 |
| 20260510025317 | 53 | 119 | 1.0 | 2.0 | 0.00 | 0.03 | 0.03 | 85 | 1008.8 |
| 20260510024337 | 54 | 119 | 0.0 | 4.0 | 0.00 | 0.03 | 0.03 | 85 | 1008.7 |
| 20260510023317 | 54 | 309 | 1.0 | 4.0 | 0.00 | 0.03 | 0.03 | 84 | 1008.7 |
| 20260510022315 | 54 | 144 | 2.0 | 3.0 | 0.00 | 0.03 | 0.03 | 83 | 1008.5 |
| 20260510021339 | 55 | 144 | 1.0 | 2.0 | 0.00 | 0.03 | 0.03 | 81 | 1008.4 |
| 20260510020338 | 55 | 267 | 1.0 | 2.0 | 0.00 | 0.03 | 0.03 | 80 | 1008.2 |
| 20260510015357 | 56 | 151 | 2.0 | 2.0 | 0.00 | 0.03 | 0.03 | 81 | 1008.0 |
| 20260510014354 | 57 | 151 | 0.0 | 1.0 | 0.00 | 0.03 | 0.03 | 79 | 1008.0 |
| 20260510013323 | 57 | 151 | 0.0 | 1.0 | 0.00 | 0.03 | 0.03 | 78 | 1007.9 |
| 20260510012327 | 58 | 151 | 2.0 | 3.0 | 0.00 | 0.03 | 0.03 | 78 | 1007.7 |
| 20260510011339 | 58 | 151 | 0.0 | 1.0 | 0.00 | 0.03 | 0.03 | 76 | 1007.5 |
| 20260510010339 | 59 | 151 | 0.0 | 0.0 | 0.00 | 0.03 | 0.03 | 74 | 1007.4 |
| 20260510005338 | 60 | 151 | 0.0 | 2.0 | 0.00 | 0.03 | 0.03 | 72 | 1007.3 |
| 20260510004321 | 61 | 195 | 0.0 | 2.0 | 0.00 | 0.03 | 0.03 | 71 | 1007.0 |
| 20260510003336 | 62 | 126 | 1.0 | 3.0 | 0.00 | 0.03 | 0.03 | 68 | 1007.0 |
| 20260510002332 | 63 | 269 | 1.0 | 2.0 | 0.00 | 0.03 | 0.03 | 66 | 1006.9 |
| 20260510001330 | 65 | 269 | 1.0 | 6.0 | 0.00 | 0.03 | 0.03 | 62 | 1006.8 |
| 20260510000337 | 67 | 166 | 1.0 | 7.0 | 0.00 | 0.03 | 0.03 | 59 | 1006.8 |
| 20260509235317 | 68 | 123 | 3.0 | 5.0 | 0.00 | 0.03 | 0.03 | 59 | 1006.8 |
| 20260509234341 | 69 | 159 | 3.0 | 7.0 | 0.00 | 0.03 | 0.03 | 56 | 1006.7 |
| 20260509233359 | 70 | 147 | 3.0 | 5.0 | 0.00 | 0.03 | 0.03 | 56 | 1006.7 |
| 20260509232325 | 70 | 168 | 2.0 | 7.0 | 0.00 | 0.03 | 0.03 | 55 | 1006.7 |
| 20260509231337 | 70 | 309 | 0.0 | 2.0 | 0.00 | 0.03 | 0.03 | 51 | 1006.8 |
| 20260509230354 | 70 | 309 | 2.0 | 4.0 | 0.00 | 0.03 | 0.03 | 51 | 1006.9 |
| 20260509225317 | 70 | 298 | 1.0 | 4.0 | 0.00 | 0.03 | 0.03 | 53 | 1006.9 |
| 20260509224336 | 70 | 303 | 3.0 | 4.0 | 0.00 | 0.03 | 0.03 | 54 | 1006.9 |
| 20260509223337 | 70 | 244 | 2.0 | 5.0 | 0.00 | 0.03 | 0.03 | 53 | 1006.8 |
| 20260509222400 | 70 | 223 | 2.0 | 4.0 | 0.00 | 0.03 | 0.03 | 52 | 1006.9 |
| 20260509221340 | 72 | 308 | 3.0 | 4.0 | 0.00 | 0.03 | 0.03 | 54 | 1006.8 |
| 20260509220336 | 71 | 12 | 1.0 | 3.0 | 0.00 | 0.03 | 0.03 | 53 | 1006.8 |
| 20260509215320 | 71 | 253 | 2.0 | 6.0 | 0.00 | 0.03 | 0.03 | 52 | 1006.8 |
| 20260509214333 | 71 | 331 | 2.0 | 5.0 | 0.00 | 0.03 | 0.03 | 52 | 1006.7 |
| 20260509213314 | 71 | 330 | 3.0 | 7.0 | 0.00 | 0.03 | 0.03 | 55 | 1006.8 |
| 20260509212356 | 70 | 330 | 3.0 | 5.0 | 0.00 | 0.03 | 0.03 | 50 | 1006.9 |
| 20260509211319 | 71 | 30 | 2.0 | 5.0 | 0.00 | 0.03 | 0.03 | 53 | 1006.9 |
| 20260509210324 | 70 | 23 | 2.0 | 5.0 | 0.00 | 0.03 | 0.03 | 53 | 1007.0 |
| 20260509205328 | 70 | 5 | 2.0 | 5.0 | 0.00 | 0.03 | 0.03 | 54 | 1007.0 |